Regional Weather Roundup
Issued by NWS

Home | Current Version | Previous Version | Text Only | Print | Product List | Glossary On
Versions: 1 2 3 4 5 6 7 8 9 10 11 12 13 14 15 16 17 18 19 20 21 22 23 24 25 26 27 28 29 30 31 32 33 34 35 36 37 38 39 40 41 42 43 44 45 46 47 48 49 50
000
ASUS43 KFSD 142310
RWRSD

WEATHER ROUNDUP FOR SOUTH DAKOTA
NATIONAL WEATHER SERVICE SIOUX FALLS SD
500 PM CST THU DEC 14 2017

NOTE: "FAIR" INDICATES FEW OR NO CLOUDS BELOW 12,000 FEET WITH NO
SIGNIFICANT WEATHER AND/OR OBSTRUCTIONS TO VISIBILITY.


SDZ001>005-009-010-012>017-150000-
NORTHWEST AND NORTH CENTRAL SOUTH DAKOTA

CITY           SKY/WX    TMP DP  RH WIND       PRES   REMARKS
BUFFALO          N/A     33  25  72 W18       30.10F WCI  22
FAITH            N/A     33  28  81 NW18      30.15S WCI  22
MOBRIDGE       CLOUDY    36  24  62 NW12      30.11R
$$

SDZ012>016-024>037-041>051-057-063-072>074-150000-
SOUTHWEST AND SOUTH CENTRAL SOUTH DAKOTA

CITY           SKY/WX    TMP DP  RH WIND       PRES   REMARKS
RAPID CTY ARPT CLOUDY    33  21  61 NW20      30.19S WCI  21
PIERRE         CLOUDY    33  25  72 NW8       30.16R WCI  26
CUSTER         PTCLDY    23  13  65 W8        30.11F WCI  14
ELLSWORTH AFB  CLOUDY    33  21  61 NW17      30.17  WCI  22
PHILIP         CLOUDY    34  31  88 NW9       30.19S WCI  27
PINE RIDGE     CLOUDY    33  23  66 N14G24    30.19F WCI  23
SPEARFISH      CLOUDY    30  19  64 W16       30.18S WCI  19
WINNER         MOCLDY    34  30  85 NW10      30.16R WCI  26
$$

SDZ004>011-016>023-039-040-150000-
NORTHEAST SOUTH DAKOTA

CITY           SKY/WX    TMP DP  RH WIND       PRES   REMARKS
ABERDEEN       CLOUDY    28  26  92 NW5       30.12R WCI  23
WATERTOWN      CLOUDY    26  22  84 N17       30.06R WCI  13
BROOKINGS      CLOUDY    27  25  92 N6        30.07R WCI  20
SISSETON         N/A     27  23  85 NW12      30.08R WCI  17
$$

SDZ017-020-022-023-036>040-048>070-150000-
SOUTHEAST SOUTH DAKOTA

CITY           SKY/WX    TMP DP  RH WIND       PRES   REMARKS
SIOUX FALLS    CLOUDY    33  29  85 N15       30.06S WCI  23
HURON          CLOUDY    30  27  88 N9        30.12S WCI  22
CHAMBERLAIN    CLOUDY    34  32  92 N14G20    30.15R WCI  25
MITCHELL       CLOUDY    34  28  79 NW12      30.12R WCI  25
YANKTON        LGT RAIN  36  30  79 NW18G24   30.09R
$$

ABBREVIATIONS USED IN REMARKS
   TC - TEMPERATURE IN CELSIUS
  WCI - WIND CHILL INDEX
   HX - HEAT INDEX
  VSB - VISIBILITY




USA.gov is the U.S. government's official web portal to all federal, state and local government web resources and services.